Weather History for KCNC - May, 2014

Change the Weather History Date:

Tuesday, May 13, 2014

  Actual Average (WUND) Record (WUND)
Temperature  
Mean Temperature 52 °F -  
Max Temperature 57 °F - - (-1)
Min Temperature 46 °F - - (-1)
Degree Days  
Heating Degree Days 14    
Growing Degree Days 2 (Base 50)    
Moisture  
Dew Point 42 °F    
Average Humidity 72    
Maximum Humidity 94    
Minimum Humidity 48    
Precipitation  
Precipitation 0.00 in - - ()
Sea Level Pressure  
Sea Level Pressure 30.12 in    
Wind  
Wind Speed 13 mph (NW)    
Max Wind Speed 20 mph    
Max Gust Speed 28 mph    
Visibility 10 miles    
Events      
Averages and records for this station are not official NWS values.
T = Trace of Precipitation, MM = Missing Value Source: NWS Daily Summary

Daily Weather History Graph

Daily Weather History Graph

Search for Another Location

Airport or City:

Trip Planner

Search our weather history database for the weather conditions in past years. The results will help you decide how hot, cold, wet, or windy it might be!

Date:

Astronomy

May. 13, 2014 Rise Set
Actual Time 5:57 AM CDT 8:22 PM CDT
Civil Twilight 5:26 AM CDT 8:53 PM CDT
Nautical Twilight 4:47 AM CDT 9:32 PM CDT
Astronomical Twilight 4:05 AM CDT 10:15 PM CDT
Moon 7:24 PM CDT (5/13) 5:15 AM CDT (5/13)
Length of Visible Light 15h 27m
Length of Day
14h 25m
Waxing Gibbous, 99% of the Moon is Illuminated
May 13
Waxing Gibbous
May 14
Full
May 21
Last Quarter
May 28
New
Jun 5
First Quarter

Hourly Weather History & Observations

Time (CDT) Temp. Windchill Dew Point Humidity Pressure Visibility Wind Dir Wind Speed Gust Speed Precip Events Conditions
12:15 AM 50.0 °F - 46.4 °F 87% 29.95 in 9.0 mi NW 15.0 mph - N/A   Overcast
12:35 AM 50.0 °F - 46.4 °F 87% 29.97 in 9.0 mi WNW 13.8 mph - N/A   Overcast
1:15 AM 50.0 °F - 46.4 °F 87% 29.98 in 10.0 mi WNW 10.4 mph 18.4 mph N/A   Overcast
1:35 AM 50.0 °F - 48.2 °F 94% 29.99 in 10.0 mi WNW 8.1 mph - N/A   Overcast
1:55 AM 50.0 °F - 46.4 °F 87% 29.99 in 9.0 mi WNW 15.0 mph - N/A   Overcast
2:15 AM 50.0 °F - 46.4 °F 87% 29.98 in 10.0 mi NW 11.5 mph 20.7 mph N/A   Overcast
2:35 AM 48.2 °F - 46.4 °F 93% 29.99 in 10.0 mi NW 12.7 mph 23.0 mph N/A   Overcast
2:55 AM 48.2 °F - 46.4 °F 93% 29.98 in 10.0 mi WNW 8.1 mph 17.3 mph N/A   Overcast
3:15 AM 48.2 °F - 44.6 °F 87% 29.99 in 10.0 mi NW 15.0 mph - N/A   Overcast
3:35 AM 48.2 °F - 44.6 °F 87% 29.99 in 10.0 mi WNW 12.7 mph - N/A   Overcast
3:55 AM 48.2 °F - 44.6 °F 87% 30.00 in 10.0 mi NW 12.7 mph 24.2 mph N/A   Overcast
4:15 AM 48.2 °F - 44.6 °F 87% 30.00 in 10.0 mi NW 15.0 mph 23.0 mph N/A   Overcast
4:35 AM 48.2 °F - 44.6 °F 87% 30.01 in 10.0 mi NW 16.1 mph - N/A   Overcast
4:55 AM 48.2 °F - 44.6 °F 87% 30.02 in 10.0 mi NW 13.8 mph - N/A   Overcast
5:15 AM 48.2 °F - 44.6 °F 87% 30.02 in 10.0 mi NW 19.6 mph - N/A   Overcast
5:35 AM 48.2 °F - 44.6 °F 87% 30.03 in 10.0 mi NW 16.1 mph 21.9 mph N/A   Overcast
5:55 AM 48.2 °F - 42.8 °F 82% 30.03 in 10.0 mi NW 15.0 mph 23.0 mph N/A   Overcast
6:15 AM 48.2 °F - 42.8 °F 82% 30.03 in 10.0 mi NNW 15.0 mph - N/A   Overcast
6:35 AM 48.2 °F - 42.8 °F 82% 30.04 in 10.0 mi NNW 13.8 mph - N/A   Overcast
6:55 AM 48.2 °F - 42.8 °F 82% 30.05 in 10.0 mi NW 13.8 mph 20.7 mph N/A   Overcast
7:15 AM 48.2 °F - 42.8 °F 82% 30.06 in 10.0 mi NW 13.8 mph 21.9 mph N/A   Overcast
8:15 AM 48.2 °F - 42.8 °F 82% 30.07 in 10.0 mi NW 13.8 mph - N/A   Overcast
8:35 AM 48.2 °F - 42.8 °F 82% 30.08 in 10.0 mi NW 15.0 mph - N/A   Overcast
9:15 AM 48.2 °F - 41.0 °F 76% 30.10 in 10.0 mi NNW 18.4 mph - N/A   Overcast
11:35 AM 50.0 °F - 44.6 °F 82% 30.16 in 10.0 mi WNW 10.4 mph 17.3 mph N/A   Overcast
11:55 AM 51.8 °F - 42.8 °F 71% 30.16 in 10.0 mi NW 12.7 mph - N/A   Overcast
12:15 PM 51.8 °F - 42.8 °F 71% 30.17 in 10.0 mi NW 12.7 mph 19.6 mph N/A   Overcast
12:35 PM 51.8 °F - 42.8 °F 71% 30.16 in 10.0 mi NW 12.7 mph - N/A   Overcast
12:55 PM 53.6 °F - 42.8 °F 67% 30.16 in 10.0 mi NW 18.4 mph - N/A   Overcast
1:15 PM 53.6 °F - 42.8 °F 67% 30.16 in 10.0 mi NW 13.8 mph 20.7 mph N/A   Overcast
1:35 PM 53.6 °F - 42.8 °F 67% 30.16 in 10.0 mi NNW 15.0 mph 27.6 mph N/A   Overcast
1:55 PM 55.4 °F - 42.8 °F 63% 30.16 in 10.0 mi NW 17.3 mph - N/A   Mostly Cloudy
2:15 PM 55.4 °F - 42.8 °F 63% 30.16 in 10.0 mi NNW 17.3 mph - N/A   Mostly Cloudy
2:35 PM 57.2 °F - 44.6 °F 63% 30.16 in 10.0 mi NNW 16.1 mph - N/A   Mostly Cloudy
2:55 PM 57.2 °F - 42.8 °F 59% 30.16 in 10.0 mi NNW 18.4 mph 27.6 mph N/A   Mostly Cloudy
3:15 PM 57.2 °F - 42.8 °F 59% 30.16 in 10.0 mi NNW 17.3 mph 27.6 mph N/A   Scattered Clouds
3:35 PM 57.2 °F - 42.8 °F 59% 30.16 in 10.0 mi NW 18.4 mph 24.2 mph N/A   Mostly Cloudy
3:55 PM 57.2 °F - 41.0 °F 55% 30.16 in 10.0 mi NW 16.1 mph 25.3 mph N/A   Mostly Cloudy
4:15 PM 57.2 °F - 41.0 °F 55% 30.16 in 10.0 mi North 18.4 mph - N/A   Mostly Cloudy
4:35 PM 57.2 °F - 39.2 °F 51% 30.17 in 10.0 mi North 13.8 mph 21.9 mph N/A   Overcast
4:55 PM 57.2 °F - 39.2 °F 51% 30.16 in 10.0 mi NNW 19.6 mph - N/A   Overcast
5:15 PM 57.2 °F - 39.2 °F 51% 30.17 in 10.0 mi NW 17.3 mph 23.0 mph N/A   Mostly Cloudy
5:35 PM 55.4 °F - 39.2 °F 54% 30.18 in 10.0 mi NNW 15.0 mph 24.2 mph N/A   Scattered Clouds
5:55 PM 55.4 °F - 39.2 °F 54% 30.18 in 10.0 mi NW 17.3 mph - N/A   Mostly Cloudy
6:15 PM 57.2 °F - 37.4 °F 48% 30.18 in 10.0 mi NW 16.1 mph - N/A   Partly Cloudy
6:35 PM 57.2 °F - 39.2 °F 51% 30.18 in 10.0 mi NNW 10.4 mph 20.7 mph N/A   Mostly Cloudy
7:15 PM 55.4 °F - 39.2 °F 54% 30.19 in 10.0 mi NW 10.4 mph - N/A   Mostly Cloudy
7:35 PM 55.4 °F - 39.2 °F 54% 30.19 in 10.0 mi NNW 16.1 mph - N/A   Overcast
7:55 PM 55.4 °F - 37.4 °F 51% 30.20 in 10.0 mi NNW 11.5 mph - N/A   Mostly Cloudy
8:15 PM 53.6 °F - 39.2 °F 58% 30.20 in 10.0 mi NNW 8.1 mph 13.8 mph N/A   Mostly Cloudy
8:35 PM 53.6 °F - 39.2 °F 58% 30.21 in 10.0 mi NW 6.9 mph - N/A   Mostly Cloudy
8:55 PM 51.8 °F - 41.0 °F 67% 30.21 in 10.0 mi NW 6.9 mph - N/A   Partly Cloudy
9:15 PM 50.0 °F - 39.2 °F 66% 30.22 in 10.0 mi NW 6.9 mph - N/A   Partly Cloudy
9:35 PM 50.0 °F - 41.0 °F 71% 30.23 in 10.0 mi WNW 5.8 mph - N/A   Mostly Cloudy
9:55 PM 50.0 °F - 39.2 °F 66% 30.24 in 10.0 mi WNW 6.9 mph - N/A   Overcast
10:15 PM 48.2 °F - 41.0 °F 76% 30.24 in 10.0 mi WNW 5.8 mph - N/A   Mostly Cloudy
10:35 PM 46.4 °F 43.5 °F 41.0 °F 81% 30.25 in 10.0 mi NW 5.8 mph - N/A   Mostly Cloudy
10:55 PM 48.2 °F - 39.2 °F 71% 30.25 in 10.0 mi NW 6.9 mph - N/A   Mostly Cloudy
11:15 PM 48.2 °F - 39.2 °F 71% 30.25 in 10.0 mi NW 5.8 mph - N/A   Mostly Cloudy
11:35 PM 48.2 °F - 39.2 °F 71% 30.25 in 10.0 mi WNW 4.6 mph - N/A   Mostly Cloudy
11:55 PM 46.4 °F 44.3 °F 39.2 °F 76% 30.25 in 10.0 mi WNW 4.6 mph - N/A   Mostly Cloudy